Time,TemperatureF,DewpointF,PressureIn,WindDirection,WindDirectionDegrees,WindSpeedMPH,WindSpeedGustMPH,Humidity,HourlyPrecipIn,Conditions,Clouds,dailyrainin,SoftwareType,DateUTC
2013-10-05 00:00:00,75.6,70.4,29.90,North,0,0.0,0.0,84,0.00,,BKN100,0.00,VWS V14.01,2013-10-05 05:00:00,
2013-10-05 00:10:00,75.4,70.2,29.90,North,0,0.0,0.0,84,0.00,,BKN100,0.00,VWS V14.01,2013-10-05 05:10:00,
2013-10-05 00:20:00,75.1,70.3,29.89,North,0,0.0,0.0,85,0.00,,BKN100,0.00,VWS V14.01,2013-10-05 05:20:00,
2013-10-05 00:30:00,74.9,70.4,29.89,North,0,0.0,0.0,86,0.00,,BKN100,0.00,VWS V14.01,2013-10-05 05:30:00,
2013-10-05 00:40:00,74.8,70.3,29.89,North,0,0.0,0.0,86,0.00,,BKN100,0.00,VWS V14.01,2013-10-05 05:40:00,
2013-10-05 00:50:00,74.6,70.1,29.90,North,0,0.0,0.0,86,0.00,,BKN100,0.00,VWS V14.01,2013-10-05 05:50:00,
2013-10-05 01:00:00,74.6,70.5,29.89,North,0,0.0,0.0,87,0.00,,BKN100,0.00,VWS V14.01,2013-10-05 06:00:00,
2013-10-05 01:10:00,74.4,70.3,29.89,North,0,0.0,0.0,87,0.00,,BKN100,0.00,VWS V14.01,2013-10-05 06:10:00,
2013-10-05 01:20:00,74.4,70.3,29.89,North,0,0.0,0.0,87,0.00,,BKN100,0.00,VWS V14.01,2013-10-05 06:20:00,
2013-10-05 01:30:00,74.2,70.4,29.89,North,0,0.0,0.0,88,0.00,,BKN100,0.00,VWS V14.01,2013-10-05 06:30:00,
2013-10-05 01:40:00,74.1,70.3,29.89,North,0,0.0,0.0,88,0.00,,BKN100,0.00,VWS V14.01,2013-10-05 06:40:00,
2013-10-05 01:50:00,74.1,70.3,29.89,North,0,0.0,0.0,88,0.00,,BKN100,0.00,VWS V14.01,2013-10-05 06:50:00,
2013-10-05 02:00:00,74.1,70.3,29.89,North,0,0.0,0.0,88,0.00,,BKN100,0.00,VWS V14.01,2013-10-05 07:00:00,
2013-10-05 02:10:00,74.0,70.2,29.89,North,0,0.0,0.0,88,0.00,,BKN100,0.00,VWS V14.01,2013-10-05 07:10:00,
2013-10-05 02:20:00,73.8,70.4,29.89,North,0,0.0,0.0,89,0.00,,BKN100,0.00,VWS V14.01,2013-10-05 07:20:00,
2013-10-05 02:30:00,73.5,70.1,29.89,North,0,0.0,0.0,89,0.00,,BKN100,0.00,VWS V14.01,2013-10-05 07:30:00,
2013-10-05 02:40:00,73.4,70.0,29.89,North,0,0.0,0.0,89,0.00,,BKN100,0.00,VWS V14.01,2013-10-05 07:40:00,
2013-10-05 02:50:00,73.4,70.3,29.89,North,0,0.0,0.0,90,0.00,,BKN100,0.00,VWS V14.01,2013-10-05 07:50:00,
2013-10-05 03:00:00,73.2,70.1,29.89,North,0,0.0,0.0,90,0.00,,BKN100,0.00,VWS V14.01,2013-10-05 08:00:00,
2013-10-05 03:10:00,73.0,69.9,29.89,North,0,0.0,0.0,90,0.00,,BKN100,0.00,VWS V14.01,2013-10-05 08:10:00,
2013-10-05 03:20:00,72.8,69.7,29.89,North,0,0.0,0.0,90,0.00,,BKN100,0.00,VWS V14.01,2013-10-05 08:20:00,
2013-10-05 03:30:00,72.7,69.9,29.89,North,0,0.0,0.0,91,0.00,,BKN100,0.00,VWS V14.01,2013-10-05 08:30:00,
2013-10-05 03:40:00,72.6,69.8,29.89,North,0,0.0,0.0,91,0.00,,BKN100,0.00,VWS V14.01,2013-10-05 08:40:00,
2013-10-05 03:50:00,72.8,70.0,29.89,North,0,0.0,0.0,91,0.00,,BKN100,0.00,VWS V14.01,2013-10-05 08:50:00,
2013-10-05 04:00:00,72.8,70.3,29.89,North,0,0.0,0.0,92,0.00,,BKN100,0.00,VWS V14.01,2013-10-05 09:00:00,
2013-10-05 04:10:00,72.8,70.3,29.89,North,0,0.0,0.0,92,0.00,,BKN100,0.00,VWS V14.01,2013-10-05 09:10:00,
2013-10-05 04:20:00,72.8,70.3,29.89,North,0,0.0,0.0,92,0.00,,BKN100,0.00,VWS V14.01,2013-10-05 09:20:00,
2013-10-05 04:30:00,72.8,70.3,29.89,North,0,0.0,0.0,92,0.00,,BKN100,0.00,VWS V14.01,2013-10-05 09:30:00,
2013-10-05 04:40:00,72.8,70.3,29.89,North,0,0.0,0.0,92,0.00,,BKN100,0.00,VWS V14.01,2013-10-05 09:40:00,
2013-10-05 04:50:00,72.8,70.3,29.89,North,0,0.0,0.0,92,0.00,,BKN100,0.00,VWS V14.01,2013-10-05 09:50:00,
2013-10-05 05:00:00,72.8,70.3,29.89,North,0,0.0,0.0,92,0.00,,BKN100,0.00,VWS V14.01,2013-10-05 10:00:00,
2013-10-05 05:10:00,72.8,70.3,29.89,North,0,0.0,0.0,92,0.00,,BKN100,0.00,VWS V14.01,2013-10-05 10:10:00,
2013-10-05 05:20:00,72.7,70.2,29.89,North,0,0.0,0.0,92,0.00,,BKN100,0.00,VWS V14.01,2013-10-05 10:20:00,
2013-10-05 05:30:00,72.6,70.2,29.89,North,0,0.0,0.0,92,0.00,,BKN100,0.00,VWS V14.01,2013-10-05 10:30:00,
2013-10-05 05:40:00,72.4,69.9,29.89,North,0,0.0,0.0,92,0.00,,BKN100,0.00,VWS V14.01,2013-10-05 10:40:00,
2013-10-05 05:50:00,72.2,69.8,29.89,North,0,0.0,0.0,92,0.00,,BKN100,0.00,VWS V14.01,2013-10-05 10:50:00,
2013-10-05 06:00:00,71.9,69.4,29.89,North,0,0.0,0.0,92,0.00,,BKN100,0.00,VWS V14.01,2013-10-05 11:00:00,
2013-10-05 06:10:00,71.6,69.2,29.89,North,0,0.0,0.0,92,0.00,,BKN100,0.00,VWS V14.01,2013-10-05 11:10:00,
2013-10-05 06:20:00,71.4,69.0,29.90,North,0,0.0,0.0,92,0.00,,BKN100,0.00,VWS V14.01,2013-10-05 11:20:00,
2013-10-05 06:30:00,71.3,69.2,29.90,North,0,0.0,0.0,93,0.00,,BKN100,0.00,VWS V14.01,2013-10-05 11:30:00,
2013-10-05 06:40:00,71.1,69.0,29.90,North,0,0.0,0.0,93,0.00,,BKN100,0.00,VWS V14.01,2013-10-05 11:40:00,
2013-10-05 06:50:00,70.9,68.8,29.90,North,0,0.0,0.0,93,0.00,,BKN100,0.00,VWS V14.01,2013-10-05 11:50:00,
2013-10-05 07:00:00,70.6,68.5,29.90,North,0,0.0,0.0,93,0.00,,BKN100,0.00,VWS V14.01,2013-10-05 12:00:00,
2013-10-05 07:10:00,70.5,68.4,29.90,North,0,0.0,0.0,93,0.00,,BKN100,0.00,VWS V14.01,2013-10-05 12:10:00,
2013-10-05 07:20:00,70.4,68.3,29.90,North,0,0.0,0.0,93,0.00,,BKN100,0.00,VWS V14.01,2013-10-05 12:20:00,
2013-10-05 07:30:00,70.3,68.2,29.90,North,0,0.0,0.0,93,0.00,,BKN100,0.00,VWS V14.01,2013-10-05 12:30:00,
2013-10-05 07:40:00,70.2,68.1,29.90,North,0,0.0,0.0,93,0.00,,BKN100,0.00,VWS V14.01,2013-10-05 12:40:00,
2013-10-05 07:50:00,70.3,68.2,29.91,North,0,0.0,0.0,93,0.00,,BKN100,0.00,VWS V14.01,2013-10-05 12:50:00,
2013-10-05 08:00:00,70.3,68.5,29.91,North,0,0.0,0.0,94,0.00,,BKN100,0.00,VWS V14.01,2013-10-05 13:00:00,
2013-10-05 08:10:00,70.6,68.8,29.91,North,0,0.0,0.0,94,0.00,,BKN100,0.00,VWS V14.01,2013-10-05 13:10:00,
2013-10-05 08:20:00,71.0,69.2,29.91,North,0,0.0,0.0,94,0.00,,BKN100,0.00,VWS V14.01,2013-10-05 13:20:00,
2013-10-05 08:30:00,71.2,69.4,29.92,North,0,0.0,0.0,94,0.00,,BKN100,0.00,VWS V14.01,2013-10-05 13:30:00,
2013-10-05 08:40:00,71.5,69.7,29.92,North,0,0.0,0.0,94,0.00,,BKN100,0.00,VWS V14.01,2013-10-05 13:40:00,
2013-10-05 08:50:00,71.8,70.0,29.92,North,0,0.0,0.0,94,0.00,,BKN100,0.00,VWS V14.01,2013-10-05 13:50:00,
2013-10-05 09:00:00,72.5,70.7,29.92,North,0,0.0,0.0,94,0.00,,BKN100,0.00,VWS V14.01,2013-10-05 14:00:00,
2013-10-05 09:10:00,73.1,71.3,29.92,North,0,0.0,0.0,94,0.00,,BKN100,0.00,VWS V14.01,2013-10-05 14:10:00,
2013-10-05 09:20:00,73.4,71.6,29.92,North,0,0.0,0.0,94,0.00,,BKN100,0.00,VWS V14.01,2013-10-05 14:20:00,
2013-10-05 09:30:00,73.4,71.6,29.92,North,0,0.0,0.0,94,0.00,,BKN100,0.00,VWS V14.01,2013-10-05 14:30:00,
2013-10-05 09:40:00,73.7,71.9,29.92,North,0,0.0,0.0,94,0.00,,BKN100,0.00,VWS V14.01,2013-10-05 14:40:00,
2013-10-05 09:50:00,74.2,72.1,29.93,North,0,0.0,0.0,93,0.00,,BKN100,0.00,VWS V14.01,2013-10-05 14:50:00,
2013-10-05 10:00:00,74.5,71.7,29.93,North,0,0.0,0.0,91,0.00,,BKN100,0.00,VWS V14.01,2013-10-05 15:00:00,
2013-10-05 10:10:00,74.9,71.8,29.93,North,0,0.0,0.0,90,0.00,,BKN100,0.00,VWS V14.01,2013-10-05 15:10:00,
2013-10-05 10:20:00,75.4,71.6,29.94,North,0,0.0,0.0,88,0.00,,BKN100,0.00,VWS V14.01,2013-10-05 15:20:00,
2013-10-05 10:30:00,76.0,71.2,29.94,North,0,0.0,0.0,85,0.00,,BKN100,0.00,VWS V14.01,2013-10-05 15:30:00,
2013-10-05 10:40:00,76.9,70.6,29.94,North,0,0.0,0.0,81,0.00,,BKN100,0.00,VWS V14.01,2013-10-05 15:40:00,
2013-10-05 10:50:00,77.2,70.2,29.94,North,0,0.0,0.0,79,0.00,,BKN100,0.00,VWS V14.01,2013-10-05 15:50:00,
2013-10-05 11:00:00,77.2,69.8,29.95,North,0,0.0,0.0,78,0.00,,BKN100,0.00,VWS V14.01,2013-10-05 16:00:00,
2013-10-05 11:10:00,77.3,69.5,29.95,North,0,0.0,0.0,77,0.00,,BKN100,0.00,VWS V14.01,2013-10-05 16:10:00,
2013-10-05 11:20:00,77.7,69.5,29.96,North,0,0.0,0.0,76,0.00,,BKN100,0.00,VWS V14.01,2013-10-05 16:20:00,
2013-10-05 11:30:00,78.2,69.6,29.96,North,0,0.0,0.0,75,0.00,,BKN100,0.00,VWS V14.01,2013-10-05 16:30:00,
2013-10-05 11:40:00,78.9,68.7,29.96,North,0,0.0,0.0,71,0.00,,BKN100,0.00,VWS V14.01,2013-10-05 16:40:00,
2013-10-05 11:50:00,79.7,69.1,29.96,North,0,0.0,0.0,70,0.00,,BKN100,0.00,VWS V14.01,2013-10-05 16:50:00,
2013-10-05 12:00:00,80.6,68.6,29.96,North,0,0.0,0.0,67,0.00,,BKN100,0.00,VWS V14.01,2013-10-05 17:00:00,
2013-10-05 12:10:00,81.5,68.6,29.96,North,0,0.0,0.0,65,0.00,,BKN100,0.00,VWS V14.01,2013-10-05 17:10:00,
2013-10-05 12:20:00,82.1,69.6,29.97,North,0,0.0,0.0,66,0.00,,BKN100,0.00,VWS V14.01,2013-10-05 17:20:00,
2013-10-05 12:30:00,81.8,68.9,29.96,North,0,0.0,0.0,65,0.00,,BKN100,0.00,VWS V14.01,2013-10-05 17:30:00,
2013-10-05 12:40:00,81.7,67.9,29.96,North,0,0.0,0.0,63,0.00,,BKN100,0.00,VWS V14.01,2013-10-05 17:40:00,
2013-10-05 12:50:00,82.4,67.6,29.96,North,0,0.0,0.0,61,0.00,,BKN100,0.00,VWS V14.01,2013-10-05 17:50:00,
2013-10-05 13:00:00,84.4,67.0,29.95,North,0,0.0,0.0,56,0.00,,BKN100,0.00,VWS V14.01,2013-10-05 18:00:00,
2013-10-05 13:10:00,85.3,67.8,29.95,North,0,0.0,0.0,56,0.00,,BKN100,0.00,VWS V14.01,2013-10-05 18:10:00,
2013-10-05 13:20:00,84.9,68.5,29.95,North,0,0.0,0.0,58,0.00,,BKN100,0.00,VWS V14.01,2013-10-05 18:20:00,
2013-10-05 13:30:00,84.8,68.4,29.95,North,0,0.0,0.0,58,0.00,,BKN100,0.00,VWS V14.01,2013-10-05 18:30:00,
2013-10-05 13:40:00,85.7,67.7,29.95,North,0,0.0,0.0,55,0.00,,BKN100,0.00,VWS V14.01,2013-10-05 18:40:00,
2013-10-05 13:50:00,85.8,67.8,29.94,North,0,0.0,0.0,55,0.00,,BKN100,0.00,VWS V14.01,2013-10-05 18:50:00,
2013-10-05 14:00:00,84.6,67.2,29.93,North,0,0.0,0.0,56,0.00,,BKN100,0.00,VWS V14.01,2013-10-05 19:00:00,
2013-10-05 14:10:00,84.4,64.9,29.93,North,0,0.0,0.0,52,0.00,,BKN100,0.00,VWS V14.01,2013-10-05 19:10:00,
2013-10-05 14:20:00,85.5,65.9,29.93,North,0,0.0,0.0,52,0.00,,BKN100,0.00,VWS V14.01,2013-10-05 19:20:00,
2013-10-05 14:30:00,86.5,65.1,29.92,North,0,0.0,0.0,49,0.00,,BKN100,0.00,VWS V14.01,2013-10-05 19:30:00,
2013-10-05 14:40:00,86.9,69.3,29.92,North,0,0.0,0.0,56,0.00,,BKN100,0.00,VWS V14.01,2013-10-05 19:40:00,
2013-10-05 14:50:00,88.1,66.6,29.92,North,0,0.0,0.0,49,0.00,,BKN100,0.00,VWS V14.01,2013-10-05 19:50:00,
2013-10-05 15:00:00,88.5,68.1,29.91,North,0,0.0,0.0,51,0.00,,BKN100,0.00,VWS V14.01,2013-10-05 20:00:00,
2013-10-05 15:10:00,86.5,71.0,29.91,North,0,0.0,0.0,60,0.00,,BKN100,0.00,VWS V14.01,2013-10-05 20:10:00,
2013-10-05 15:20:00,84.2,69.8,29.90,North,0,0.0,0.0,62,0.00,,BKN100,0.00,VWS V14.01,2013-10-05 20:20:00,
2013-10-05 15:30:00,82.7,68.8,29.90,North,0,0.0,0.0,63,0.00,,BKN100,0.00,VWS V14.01,2013-10-05 20:30:00,
2013-10-05 15:40:00,82.4,68.6,29.90,North,0,0.0,0.0,63,0.00,,BKN100,0.00,VWS V14.01,2013-10-05 20:40:00,
2013-10-05 15:50:00,84.0,64.5,29.89,North,0,0.0,0.0,52,0.00,,BKN100,0.00,VWS V14.01,2013-10-05 20:50:00,
2013-10-05 16:00:00,86.7,63.5,29.89,North,0,0.0,0.0,46,0.00,,BKN100,0.00,VWS V14.01,2013-10-05 21:00:00,
2013-10-05 16:10:00,87.8,69.1,29.89,North,0,0.0,0.0,54,0.00,,BKN100,0.00,VWS V14.01,2013-10-05 21:10:00,
2013-10-05 16:20:00,87.5,66.6,29.89,North,0,0.0,0.0,50,0.00,,BKN100,0.00,VWS V14.01,2013-10-05 21:20:00,
2013-10-05 16:30:00,87.2,65.1,29.88,North,0,0.0,0.0,48,0.00,,BKN100,0.00,VWS V14.01,2013-10-05 21:30:00,
2013-10-05 16:40:00,86.6,65.8,29.88,North,0,0.0,0.0,50,0.00,,BKN100,0.00,VWS V14.01,2013-10-05 21:40:00,
2013-10-05 16:50:00,86.1,66.4,29.87,North,0,0.0,0.0,52,0.00,,BKN100,0.00,VWS V14.01,2013-10-05 21:50:00,
2013-10-05 17:00:00,85.7,64.4,29.87,North,0,0.0,0.0,49,0.00,,BKN100,0.00,VWS V14.01,2013-10-05 22:00:00,
2013-10-05 17:10:00,85.5,67.0,29.87,North,0,0.0,0.0,54,0.00,,BKN100,0.00,VWS V14.01,2013-10-05 22:10:00,
2013-10-05 17:20:00,85.1,67.7,29.87,North,0,0.0,0.0,56,0.00,,BKN100,0.00,VWS V14.01,2013-10-05 22:20:00,
2013-10-05 17:30:00,84.5,65.5,29.87,North,0,0.0,0.0,53,0.00,,BKN100,0.00,VWS V14.01,2013-10-05 22:30:00,
2013-10-05 17:40:00,84.0,67.7,29.87,North,0,0.0,0.0,58,0.00,,BKN100,0.00,VWS V14.01,2013-10-05 22:40:00,
2013-10-05 17:50:00,83.4,69.5,29.87,North,0,0.0,0.0,63,0.00,,BKN100,0.00,VWS V14.01,2013-10-05 22:50:00,
2013-10-05 18:00:00,82.8,68.5,29.87,North,0,0.0,0.0,62,0.00,,BKN100,0.00,VWS V14.01,2013-10-05 23:00:00,
2013-10-05 18:10:00,82.1,68.3,29.87,North,0,0.0,0.0,63,0.00,,BKN100,0.00,VWS V14.01,2013-10-05 23:10:00,
2013-10-05 18:20:00,81.6,68.2,29.87,North,0,0.0,0.0,64,0.00,,BKN100,0.00,VWS V14.01,2013-10-05 23:20:00,
2013-10-05 18:30:00,81.0,67.7,29.87,North,0,0.0,0.0,64,0.00,,BKN100,0.00,VWS V14.01,2013-10-05 23:30:00,
2013-10-05 18:40:00,80.5,66.3,29.87,North,0,0.0,0.0,62,0.00,,BKN100,0.00,VWS V14.01,2013-10-05 23:40:00,
2013-10-05 18:50:00,80.0,64.9,29.89,North,0,0.0,0.0,60,0.00,,BKN100,0.00,VWS V14.01,2013-10-05 23:50:00,
2013-10-05 19:00:00,79.6,64.5,29.90,North,0,0.0,0.0,60,0.00,,BKN100,0.00,VWS V14.01,2013-10-06 00:00:00,
2013-10-05 19:10:00,78.8,62.3,29.90,North,0,0.0,0.0,57,0.00,,BKN100,0.00,VWS V14.01,2013-10-06 00:10:00,
2013-10-05 19:20:00,77.9,60.5,29.91,North,0,0.0,0.0,55,0.00,,BKN100,0.00,VWS V14.01,2013-10-06 00:20:00,
2013-10-05 19:30:00,77.1,60.7,29.92,North,0,0.0,0.0,57,0.00,,BKN100,0.00,VWS V14.01,2013-10-06 00:30:00,
2013-10-05 19:40:00,76.1,59.8,29.92,North,0,0.0,0.0,57,0.00,,BKN100,0.00,VWS V14.01,2013-10-06 00:40:00,
2013-10-05 19:50:00,75.2,57.9,29.93,North,0,0.0,0.0,55,0.00,,BKN100,0.00,VWS V14.01,2013-10-06 00:50:00,
2013-10-05 20:00:00,74.3,58.1,29.94,North,0,0.0,0.0,57,0.00,,BKN100,0.00,VWS V14.01,2013-10-06 01:00:00,
2013-10-05 20:10:00,73.5,56.9,29.94,North,0,0.0,0.0,56,0.00,,BKN100,0.00,VWS V14.01,2013-10-06 01:10:00,
2013-10-05 20:20:00,72.8,57.2,29.95,North,0,0.0,0.0,58,0.00,,BKN100,0.00,VWS V14.01,2013-10-06 01:20:00,
2013-10-05 20:30:00,72.2,55.2,29.96,North,0,0.0,0.0,55,0.00,,BKN100,0.00,VWS V14.01,2013-10-06 01:30:00,
2013-10-05 20:40:00,71.5,54.5,29.96,North,0,0.0,0.0,55,0.00,,BKN100,0.00,VWS V14.01,2013-10-06 01:40:00,
2013-10-05 20:50:00,71.0,55.0,29.97,North,0,0.0,0.0,57,0.00,,BKN100,0.00,VWS V14.01,2013-10-06 01:50:00,
2013-10-05 21:00:00,70.5,54.5,29.98,North,0,0.0,0.0,57,0.00,,BKN100,0.00,VWS V14.01,2013-10-06 02:00:00,
2013-10-05 21:10:00,70.1,52.7,29.98,North,0,0.0,0.0,54,0.00,,BKN100,0.00,VWS V14.01,2013-10-06 02:10:00,
2013-10-05 21:20:00,69.9,52.0,29.99,North,0,0.0,0.0,53,0.00,,BKN100,0.00,VWS V14.01,2013-10-06 02:20:00,
2013-10-05 21:30:00,69.3,51.5,30.00,North,0,0.0,0.0,53,0.00,,BKN100,0.00,VWS V14.01,2013-10-06 02:30:00,
2013-10-05 21:40:00,68.6,51.3,30.00,North,0,0.0,0.0,54,0.00,,BKN100,0.00,VWS V14.01,2013-10-06 02:40:00,
2013-10-05 21:50:00,67.9,50.7,30.01,North,0,0.0,0.0,54,0.00,,BKN100,0.00,VWS V14.01,2013-10-06 02:50:00,
2013-10-05 22:00:00,67.3,50.1,30.01,North,0,0.0,0.0,54,0.00,,BKN100,0.00,VWS V14.01,2013-10-06 03:00:00,
2013-10-05 22:10:00,66.8,50.1,30.01,North,0,0.0,0.0,55,0.00,,BKN100,0.00,VWS V14.01,2013-10-06 03:10:00,
2013-10-05 22:20:00,66.3,51.1,30.01,North,0,0.0,0.0,58,0.00,,BKN100,0.00,VWS V14.01,2013-10-06 03:20:00,
2013-10-05 22:30:00,65.7,50.1,30.03,North,0,0.0,0.0,57,0.00,,BKN100,0.00,VWS V14.01,2013-10-06 03:30:00,
2013-10-05 22:40:00,65.1,49.5,30.03,North,0,0.0,0.0,57,0.00,,BKN100,0.00,VWS V14.01,2013-10-06 03:40:00,
2013-10-05 22:50:00,64.6,49.5,30.03,North,0,0.0,0.0,58,0.00,,BKN100,0.00,VWS V14.01,2013-10-06 03:50:00,
2013-10-05 23:00:00,64.2,49.1,30.03,North,0,0.0,0.0,58,0.00,,BKN100,0.00,VWS V14.01,2013-10-06 04:00:00,
2013-10-05 23:10:00,63.8,47.8,30.03,North,0,0.0,0.0,56,0.00,,BKN100,0.00,VWS V14.01,2013-10-06 04:10:00,
2013-10-05 23:20:00,63.5,47.1,30.04,North,0,0.0,0.0,55,0.00,,BKN100,0.00,VWS V14.01,2013-10-06 04:20:00,
2013-10-05 23:30:00,63.1,46.2,30.04,North,0,0.0,0.0,54,0.00,,BKN100,0.00,VWS V14.01,2013-10-06 04:30:00,
2013-10-05 23:40:00,62.9,46.0,30.04,North,0,0.0,0.0,54,0.00,,BKN100,0.00,VWS V14.01,2013-10-06 04:40:00,
2013-10-05 23:50:00,62.7,46.8,30.04,North,0,0.0,0.0,56,0.00,,BKN100,0.00,VWS V14.01,2013-10-06 04:50:00,